This is the latest recevied weather packets stored in our database for station/object KD4WLE. If no packets are shown the sender has not sent any weather packets the latest 10 day(s).
| Time | Temp. | Humidity | Pressure | Rain* | Wind** | Luminosity | Snow |
|---|---|---|---|---|---|---|---|
| 1777857447 | 22.22° C | 75% | 1017.9 hPa | 0 mm | - | 0 W/m² | - |
| 1777857144 | 22.22° C | 75% | 1017.7 hPa | 0 mm | - | 0 W/m² | - |
| 1777856840 | 22.22° C | 75% | 1017.6 hPa | 0 mm | - | 0 W/m² | - |
| 1777856535 | 22.22° C | 75% | 1017.4 hPa | 0 mm | - | 0 W/m² | - |
| 1777856232 | 22.22° C | 75% | 1017.4 hPa | 0 mm | - | 0 W/m² | - |
| 1777855929 | 22.22° C | 75% | 1017.3 hPa | 0 mm | - | 0 W/m² | - |
| 1777855627 | 22.22° C | 76% | 1017.2 hPa | 0 mm | - | 0 W/m² | - |
| 1777855324 | 22.22° C | 75% | 1017.1 hPa | 0 mm | - | 0 W/m² | - |
| 1777855021 | 22.22° C | 75% | 1017.3 hPa | 0 mm | - | 0 W/m² | - |
| 1777854717 | 22.22° C | 75% | 1017.2 hPa | 0 mm | - | 0 W/m² | - |
| 1777854414 | 22.22° C | 75% | 1017.5 hPa | 0 mm | - | 0 W/m² | - |
| 1777854111 | 22.22° C | 76% | 1017.2 hPa | 0 mm | - | 0 W/m² | - |
| 1777853809 | 22.78° C | 76% | 1017.1 hPa | 0 mm | - | 0 W/m² | - |
| 1777853505 | 22.78° C | 76% | 1017 hPa | 0 mm | - | 0 W/m² | - |
| 1777853202 | 22.78° C | 75% | 1016.8 hPa | 0 mm | - | 1 W/m² | - |
| 1777852900 | 22.78° C | 75% | 1017 hPa | 0 mm | - | 1 W/m² | - |
| 1777852598 | 22.78° C | 75% | 1016.9 hPa | 0 mm | - | 2 W/m² | - |
| 1777852294 | 22.78° C | 77% | 1016.9 hPa | 0 mm | - | 4 W/m² | - |
| 1777851992 | 22.78° C | 76% | 1016.9 hPa | 0 mm | - | 6 W/m² | - |
| 1777851690 | 22.78° C | 76% | 1016.8 hPa | 0 mm | - | 9 W/m² | - |
| 1777851386 | 22.78° C | 75% | 1016.8 hPa | 0 mm | - | 9 W/m² | - |
| 1777851081 | 22.78° C | 75% | 1016.8 hPa | 0 mm | - | 12 W/m² | - |
| 1777850779 | 22.78° C | 75% | 1016.9 hPa | 0 mm | - | 15 W/m² | - |
| 1777850471 | 22.78° C | 75% | 1017 hPa | 0 mm | - | 13 W/m² | - |
| 1777850169 | 22.78° C | 75% | 1016.8 hPa | 0 mm | - | 20 W/m² | - |
* Rain latest hour (hover to see other rain measurements)
** Current wind speed in m/s (hover to see current wind gust speed)